Location: Leiter
(44.7178°N, 106.2687°W)
Time: 10:36:55
(UTC+00:00)

NOAA 19 - Visible Passes

Search period start: 30 June 2022 00:00
Search period end: 10 July 2022 00:00
Orbit: 840 x 861 km, 99.1° (Epoch: 29 June)

Date Brightness Start Highest point End Pass type
(mag) Time Alt. Az. Time Alt. Az. Time Alt. Az.
01 Jul 8.0 04:02:42 10° WSW 04:04:28 11° W 04:06:15 10° WNW visible
02 Jul 7.8 03:49:21 10° WSW 03:52:25 15° W 03:55:29 10° NW visible
03 Jul 7.7 03:36:32 10° SW 03:40:23 19° W 03:44:14 10° NW visible
04 Jul 7.4 03:23:59 10° SSW 03:28:22 24° W 03:32:47 10° NW visible
09 Jul 8.2 04:09:35 10° W 04:10:10 10° W 04:10:45 10° W visible
